| time (UTC) | temp F | wind direction | speed MPH | gust MPH | rain 1hr in | rain 24hr in | rain mn in | humidity % | barometer mb |
| 20260508145145 | 51 | 158 | 2.0 | 5.0 | 0.00 | 0.01 | 0.00 | 82 | 1009.2 |
| 20260508144348 | 49 | 180 | 3.0 | 4.0 | 0.00 | 0.01 | 0.00 | 85 | 1009.2 |
| 20260508143508 | 49 | 112 | 1.0 | 3.0 | 0.00 | 0.01 | 0.00 | 85 | 1009.2 |
| 20260508142600 | 48 | 135 | 2.0 | 4.0 | 0.00 | 0.01 | 0.00 | 85 | 1009.2 |
| 20260508141648 | 48 | 180 | 1.0 | 4.0 | 0.00 | 0.01 | 0.00 | 86 | 1009.3 |
| 20260508140743 | 48 | 135 | 1.0 | 3.0 | 0.00 | 0.01 | 0.00 | 86 | 1009.4 |
| 20260508135018 | 47 | 180 | 3.0 | 6.0 | 0.00 | 0.01 | 0.00 | 86 | 1009.6 |
| 20260508134133 | 47 | 202 | 3.0 | 7.0 | 0.00 | 0.01 | 0.00 | 86 | 1009.6 |
| 20260508133331 | 47 | 158 | 3.0 | 7.0 | 0.00 | 0.01 | 0.00 | 86 | 1009.6 |
| 20260508132526 | 47 | 158 | 3.0 | 5.0 | 0.00 | 0.01 | 0.00 | 86 | 1009.8 |
| 20260508131533 | 47 | 202 | 2.0 | 5.0 | 0.00 | 0.01 | 0.00 | 86 | 1009.7 |
| 20260508130641 | 47 | 225 | 2.0 | 6.0 | 0.00 | 0.01 | 0.00 | 86 | 1009.7 |
| 20260508125713 | 47 | 158 | 2.0 | 3.0 | 0.00 | 0.01 | 0.00 | 86 | 1009.7 |
| 20260508124838 | 46 | 0 | 0.0 | 2.0 | 0.00 | 0.01 | 0.00 | 86 | 1009.7 |
| 20260508123928 | 46 | 0 | 0.0 | 2.0 | 0.00 | 0.01 | 0.00 | 86 | 1009.7 |
| 20260508123101 | 46 | 45 | 2.0 | 4.0 | 0.00 | 0.01 | 0.00 | 87 | 1009.8 |
| 20260508122256 | 46 | 0 | 3.0 | 7.0 | 0.00 | 0.01 | 0.00 | 88 | 1009.7 |
| 20260508122213 | 46 | 0 | 3.0 | 7.0 | 0.00 | 0.01 | 0.00 | 88 | 1009.7 |
| 20260508121348 | 46 | 0 | 2.0 | 7.0 | 0.00 | 0.01 | 0.00 | 89 | 1010.0 |
| 20260508120504 | 45 | 0 | 2.0 | 5.0 | 0.00 | 0.01 | 0.00 | 90 | 1010.0 |
| 20260508115613 | 45 | 0 | 1.0 | 4.0 | 0.00 | 0.01 | 0.00 | 90 | 1009.8 |
| 20260508115259 | 44 | 0 | 2.0 | 7.0 | 0.00 | 0.01 | 0.00 | 91 | 1009.6 |
| 20260508114808 | 44 | 0 | 2.0 | 7.0 | 0.00 | 0.01 | 0.00 | 91 | 1009.6 |
| 20260508113846 | 44 | 0 | 2.0 | 6.0 | 0.00 | 0.01 | 0.00 | 90 | 1009.6 |
| 20260508113018 | 43 | 0 | 0.0 | 1.0 | 0.00 | 0.01 | 0.00 | 89 | 1009.2 |
| 20260508112033 | 43 | 338 | 1.0 | 2.0 | 0.00 | 0.01 | 0.00 | 89 | 1009.0 |
| 20260508111148 | 43 | 0 | 0.0 | 2.0 | 0.00 | 0.01 | 0.00 | 88 | 1009.0 |
| 20260508110257 | 44 | 225 | 1.0 | 3.0 | 0.00 | 0.01 | 0.00 | 88 | 1008.9 |
| 20260508110218 | 44 | 225 | 1.0 | 3.0 | 0.00 | 0.01 | 0.00 | 88 | 1008.9 |
| 20260508105320 | 44 | 0 | 0.0 | 1.0 | 0.00 | 0.01 | 0.00 | 88 | 1008.8 |
| 20260508105001 | 45 | 270 | 2.0 | 4.0 | 0.00 | 0.01 | 0.00 | 89 | 1008.7 |
| 20260508104521 | 45 | 270 | 2.0 | 4.0 | 0.00 | 0.01 | 0.00 | 89 | 1008.7 |
| 20260508103906 | 45 | 0 | 1.0 | 2.0 | 0.00 | 0.01 | 0.00 | 89 | 1008.7 |
| 20260508103721 | 45 | 0 | 1.0 | 2.0 | 0.00 | 0.01 | 0.00 | 89 | 1008.7 |
| 20260508102853 | 45 | 0 | 3.0 | 5.0 | 0.00 | 0.01 | 0.00 | 89 | 1008.8 |
| 20260508101853 | 45 | 22 | 3.0 | 5.0 | 0.00 | 0.01 | 0.00 | 90 | 1008.9 |
| 20260508101008 | 44 | 45 | 3.0 | 5.0 | 0.00 | 0.01 | 0.00 | 90 | 1008.7 |
| 20260508100255 | 44 | 22 | 2.0 | 4.0 | 0.00 | 0.01 | 0.00 | 90 | 1008.8 |
| 20260508095253 | 44 | 45 | 3.0 | 5.0 | 0.00 | 0.01 | 0.00 | 90 | 1008.7 |
| 20260508094348 | 43 | 315 | 1.0 | 3.0 | 0.00 | 0.01 | 0.00 | 89 | 1008.3 |
| 20260508093526 | 43 | 0 | 0.0 | 2.0 | 0.00 | 0.01 | 0.00 | 89 | 1008.1 |
| 20260508092658 | 43 | 338 | 1.0 | 2.0 | 0.00 | 0.01 | 0.00 | 88 | 1007.9 |
| 20260508091853 | 43 | 270 | 1.0 | 3.0 | 0.00 | 0.01 | 0.00 | 88 | 1008.1 |
| 20260508090953 | 44 | 270 | 1.0 | 3.0 | 0.00 | 0.01 | 0.00 | 87 | 1008.3 |
| 20260508090252 | 44 | 270 | 1.0 | 2.0 | 0.00 | 0.01 | 0.00 | 87 | 1008.0 |
| 20260508090143 | 44 | 270 | 1.0 | 2.0 | 0.00 | 0.01 | 0.00 | 87 | 1008.0 |
| 20260508085321 | 45 | 180 | 1.0 | 2.0 | 0.00 | 0.01 | 0.00 | 86 | 1008.3 |
| 20260508084408 | 45 | 270 | 2.0 | 3.0 | 0.00 | 0.01 | 0.00 | 86 | 1008.4 |
| 20260508083443 | 46 | 225 | 1.0 | 3.0 | 0.00 | 0.01 | 0.00 | 86 | 1008.2 |
| 20260508083342 | 46 | 0 | 0.0 | 1.0 | 0.00 | 0.01 | 0.00 | 86 | 1008.4 |
| 20260508082553 | 46 | 0 | 0.0 | 1.0 | 0.00 | 0.01 | 0.00 | 86 | 1008.4 |
| 20260508081908 | 46 | 0 | 0.0 | 1.0 | 0.00 | 0.01 | 0.00 | 86 | 1008.7 |
| 20260508081608 | 46 | 0 | 0.0 | 1.0 | 0.00 | 0.01 | 0.00 | 86 | 1008.7 |
| 20260508080623 | 46 | 0 | 0.0 | 1.0 | 0.00 | 0.01 | 0.00 | 86 | 1009.0 |
| 20260508075648 | 47 | 0 | 0.0 | 1.0 | 0.00 | 0.01 | 0.00 | 84 | 1009.3 |
| 20260508074653 | 47 | 0 | 0.0 | 1.0 | 0.00 | 0.01 | 0.00 | 84 | 1009.4 |
| 20260508073906 | 47 | 0 | 0.0 | 0.0 | 0.00 | 0.01 | 0.00 | 83 | 1009.4 |
| 20260508073833 | 47 | 0 | 0.0 | 0.0 | 0.00 | 0.01 | 0.00 | 83 | 1009.4 |
| 20260508072908 | 48 | 338 | 1.0 | 2.0 | 0.00 | 0.01 | 0.00 | 83 | 1009.6 |
| 20260508072234 | 48 | 22 | 1.0 | 2.0 | 0.00 | 0.01 | 0.00 | 83 | 1009.4 |
| 20260508071938 | 48 | 22 | 1.0 | 2.0 | 0.00 | 0.01 | 0.00 | 83 | 1009.4 |
| 20260508071038 | 49 | 22 | 1.0 | 4.0 | 0.00 | 0.01 | 0.00 | 83 | 1009.4 |
| 20260508064504 | 50 | 22 | 1.0 | 2.0 | 0.00 | 0.01 | 0.00 | 81 | 1009.1 |
| 20260508063638 | 50 | 0 | 0.0 | 1.0 | 0.00 | 0.01 | 0.00 | 81 | 1009.1 |
| 20260508062748 | 51 | 45 | 1.0 | 4.0 | 0.00 | 0.01 | 0.00 | 80 | 1009.1 |
| 20260508061910 | 51 | 45 | 1.0 | 3.0 | 0.00 | 0.01 | 0.00 | 80 | 1009.0 |
| 20260508061838 | 51 | 45 | 1.0 | 3.0 | 0.00 | 0.01 | 0.00 | 80 | 1009.0 |
| 20260508060953 | 51 | 45 | 2.0 | 4.0 | 0.00 | 0.01 | 0.00 | 81 | 1008.9 |
| 20260508060239 | 51 | 45 | 2.0 | 5.0 | 0.00 | 0.01 | 0.00 | 81 | 1009.1 |
| 20260508060131 | 51 | 45 | 2.0 | 5.0 | 0.00 | 0.01 | 0.00 | 81 | 1009.1 |
| 20260508055153 | 51 | 45 | 4.0 | 9.0 | 0.00 | 0.01 | 0.00 | 82 | 1009.2 |
| 20260508054253 | 51 | 135 | 3.0 | 5.0 | 0.00 | 0.01 | 0.00 | 82 | 1009.3 |
| 20260508053408 | 51 | 202 | 3.0 | 8.0 | 0.00 | 0.01 | 0.00 | 83 | 1009.0 |
| 20260508052448 | 51 | 248 | 4.0 | 9.0 | 0.00 | 0.01 | 0.00 | 82 | 1009.3 |
| 20260508051613 | 51 | 292 | 4.0 | 7.0 | 0.00 | 0.01 | 0.00 | 83 | 1009.4 |
| 20260508050733 | 51 | 270 | 5.0 | 8.0 | 0.00 | 0.01 | 0.00 | 82 | 1009.5 |
| 20260508045753 | 52 | 270 | 4.0 | 9.0 | 0.00 | 0.01 | 0.00 | 81 | 1009.1 |
| 20260508044818 | 52 | 0 | 0.0 | 1.0 | 0.01 | 0.01 | 0.00 | 80 | 1008.9 |
| 20260508043841 | 52 | 22 | 1.0 | 3.0 | 0.01 | 0.01 | 0.00 | 79 | 1008.9 |
| 20260508043355 | 52 | 22 | 1.0 | 2.0 | 0.01 | 0.01 | 0.00 | 78 | 1008.7 |
| 20260508043021 | 52 | 22 | 1.0 | 2.0 | 0.01 | 0.01 | 0.00 | 78 | 1008.7 |
| 20260508042141 | 53 | 22 | 1.0 | 3.0 | 0.01 | 0.01 | 0.00 | 78 | 1008.5 |
| 20260508041233 | 54 | 68 | 3.0 | 5.0 | 0.01 | 0.01 | 0.00 | 75 | 1008.5 |
| 20260508040338 | 55 | 45 | 3.0 | 7.0 | 0.01 | 0.01 | 0.00 | 73 | 1008.9 |
| 20260508035449 | 56 | 45 | 1.0 | 4.0 | 0.00 | 0.00 | 0.00 | 66 | 1009.6 |
| 20260508034453 | 56 | 338 | 2.0 | 4.0 | 0.00 | 0.00 | 0.00 | 60 | 1009.9 |
| 20260508033458 | 57 | 68 | 4.0 | 7.0 | 0.00 | 0.00 | 0.00 | 59 | 1008.8 |
| 20260508032503 | 58 | 45 | 2.0 | 7.0 | 0.00 | 0.00 | 0.00 | 56 | 1008.6 |
| 20260508031533 | 58 | 68 | 4.0 | 10.0 | 0.00 | 0.00 | 0.00 | 56 | 1008.4 |
| 20260508030558 | 59 | 45 | 5.0 | 10.0 | 0.00 | 0.00 | 0.00 | 52 | 1008.3 |
| 20260508025618 | 59 | 68 | 4.0 | 11.0 | 0.00 | 0.00 | 0.00 | 50 | 1008.3 |
| 20260508024738 | 60 | 68 | 2.0 | 5.0 | 0.00 | 0.00 | 0.00 | 50 | 1008.1 |
| 20260508022901 | 60 | 45 | 6.0 | 12.0 | 0.00 | 0.00 | 0.00 | 48 | 1008.0 |
| 20260508021948 | 61 | 22 | 4.0 | 9.0 | 0.00 | 0.00 | 0.00 | 48 | 1007.9 |
| 20260508020228 | 61 | 68 | 3.0 | 6.0 | 0.00 | 0.00 | 0.00 | 49 | 1007.7 |
| 20260508015233 | 62 | 112 | 1.0 | 2.0 | 0.00 | 0.00 | 0.00 | 47 | 1007.5 |
| 20260508014258 | 63 | 180 | 1.0 | 3.0 | 0.00 | 0.00 | 0.00 | 50 | 1007.3 |
| 20260508013323 | 63 | 0 | 0.0 | 1.0 | 0.00 | 0.00 | 0.00 | 42 | 1007.1 |
| 20260508012333 | 63 | 22 | 2.0 | 4.0 | 0.00 | 0.00 | 0.00 | 44 | 1006.9 |
| 20260508012309 | 63 | 315 | 2.0 | 5.0 | 0.00 | 0.00 | 0.00 | 45 | 1006.9 |
| 20260508011411 | 63 | 315 | 2.0 | 6.0 | 0.00 | 0.00 | 0.00 | 45 | 1006.9 |
| 20260508011353 | 63 | 315 | 2.0 | 5.0 | 0.00 | 0.00 | 0.00 | 45 | 1006.9 |
| 20260508010528 | 63 | 315 | 2.0 | 5.0 | 0.00 | 0.00 | 0.00 | 45 | 1006.9 |
| 20260508004814 | 64 | 0 | 3.0 | 6.0 | 0.00 | 0.00 | 0.00 | 43 | 1007.0 |
| 20260508004653 | 64 | 0 | 3.0 | 6.0 | 0.00 | 0.00 | 0.00 | 43 | 1007.0 |
| 20260508003707 | 65 | 0 | 6.0 | 11.0 | 0.00 | 0.00 | 0.00 | 40 | 1007.3 |
| 20260508002741 | 66 | 0 | 6.0 | 16.0 | 0.00 | 0.00 | 0.00 | 37 | 1007.1 |
| 20260508001838 | 68 | 0 | 3.0 | 9.0 | 0.00 | 0.00 | 0.00 | 33 | 1007.0 |
| 20260508001007 | 69 | 0 | 4.0 | 9.0 | 0.00 | 0.00 | 0.00 | 30 | 1007.1 |
| 20260508000133 | 70 | 0 | 4.0 | 12.0 | 0.00 | 0.00 | 0.00 | 28 | 1007.1 |
| 20260507235320 | 71 | 338 | 2.0 | 5.0 | 0.00 | 0.00 | 0.00 | 28 | 1007.1 |
| 20260507234441 | 71 | 315 | 3.0 | 6.0 | 0.00 | 0.00 | 0.00 | 26 | 1007.2 |
| 20260507233553 | 71 | 135 | 2.0 | 9.0 | 0.00 | 0.00 | 0.00 | 25 | 1007.2 |
| 20260507232701 | 72 | 180 | 2.0 | 6.0 | 0.00 | 0.00 | 0.00 | 26 | 1007.3 |
| 20260507231821 | 71 | 158 | 2.0 | 5.0 | 0.00 | 0.00 | 0.00 | 27 | 1007.4 |
| 20260507230858 | 71 | 180 | 3.0 | 6.0 | 0.00 | 0.00 | 0.00 | 29 | 1007.7 |
| 20260507225928 | 72 | 180 | 2.0 | 5.0 | 0.00 | 0.00 | 0.00 | 28 | 1007.7 |
| 20260507225123 | 71 | 270 | 2.0 | 5.0 | 0.00 | 0.00 | 0.00 | 28 | 1007.7 |
| 20260507223158 | 71 | 180 | 3.0 | 7.0 | 0.00 | 0.00 | 0.00 | 28 | 1007.9 |
| 20260507222208 | 72 | 158 | 2.0 | 4.0 | 0.00 | 0.00 | 0.00 | 26 | 1008.1 |
| 20260507221339 | 73 | 202 | 4.0 | 7.0 | 0.00 | 0.00 | 0.00 | 27 | 1008.2 |
| 20260507220358 | 73 | 248 | 3.0 | 7.0 | 0.00 | 0.00 | 0.00 | 30 | 1008.3 |
| 20260507215558 | 73 | 202 | 4.0 | 10.0 | 0.00 | 0.00 | 0.00 | 32 | 1008.6 |
| 20260507214705 | 74 | 248 | 4.0 | 10.0 | 0.00 | 0.00 | 0.00 | 29 | 1008.8 |
| 20260507213858 | 74 | 202 | 4.0 | 7.0 | 0.00 | 0.00 | 0.00 | 30 | 1009.0 |
| 20260507213033 | 73 | 225 | 3.0 | 7.0 | 0.00 | 0.00 | 0.00 | 29 | 1009.1 |
| 20260507212048 | 73 | 270 | 7.0 | 14.0 | 0.00 | 0.00 | 0.00 | 30 | 1009.3 |
| 20260507211201 | 73 | 270 | 8.0 | 14.0 | 0.00 | 0.01 | 0.00 | 33 | 1009.7 |
| 20260507210339 | 73 | 270 | 10.0 | 19.0 | 0.00 | 0.01 | 0.00 | 28 | 1009.9 |
| 20260507205413 | 72 | 270 | 9.0 | 18.0 | 0.00 | 0.02 | 0.00 | 32 | 1010.2 |
| 20260507204548 | 72 | 292 | 6.0 | 13.0 | 0.00 | 0.03 | 0.00 | 31 | 1010.3 |
| 20260507203701 | 71 | 270 | 7.0 | 14.0 | 0.00 | 0.05 | 0.00 | 29 | 1010.5 |
| 20260507202738 | 72 | 270 | 7.0 | 15.0 | 0.00 | 0.07 | 0.00 | 31 | 1010.7 |
| 20260507201738 | 71 | 270 | 8.0 | 18.0 | 0.00 | 0.08 | 0.00 | 32 | 1010.9 |
| 20260507200823 | 70 | 270 | 5.0 | 14.0 | 0.00 | 0.09 | 0.00 | 33 | 1011.2 |
| 20260507200008 | 70 | 248 | 9.0 | 15.0 | 0.00 | 0.10 | 0.00 | 30 | 1011.4 |
| 20260507195113 | 69 | 248 | 5.0 | 10.0 | 0.00 | 0.10 | 0.00 | 32 | 1011.5 |
| 20260507194123 | 71 | 270 | 6.0 | 12.0 | 0.00 | 0.12 | 0.00 | 42 | 1011.5 |
| 20260507193323 | 71 | 248 | 6.0 | 11.0 | 0.00 | 0.13 | 0.00 | 34 | 1011.7 |
| 20260507192458 | 70 | 225 | 2.0 | 4.0 | 0.00 | 0.15 | 0.00 | 35 | 1012.0 |
| 20260507191618 | 70 | 270 | 4.0 | 6.0 | 0.00 | 0.16 | 0.00 | 34 | 1012.2 |
| 20260507190648 | 69 | 225 | 3.0 | 13.0 | 0.00 | 0.18 | 0.00 | 33 | 1012.4 |
| 20260507185729 | 68 | 248 | 4.0 | 10.0 | 0.00 | 0.20 | 0.00 | 32 | 1012.6 |
| 20260507184738 | 69 | 225 | 4.0 | 11.0 | 0.00 | 0.24 | 0.00 | 37 | 1012.6 |
| 20260507183928 | 68 | 202 | 3.0 | 6.0 | 0.00 | 0.28 | 0.00 | 33 | 1012.8 |
| 20260507182938 | 68 | 248 | 2.0 | 7.0 | 0.00 | 0.33 | 0.00 | 33 | 1012.9 |
| 20260507182133 | 68 | 248 | 4.0 | 9.0 | 0.00 | 0.36 | 0.00 | 36 | 1013.0 |
| 20260507181153 | 67 | 248 | 7.0 | 12.0 | 0.00 | 0.41 | 0.00 | 38 | 1013.3 |
| 20260507180223 | 66 | 270 | 8.0 | 13.0 | 0.00 | 0.47 | 0.00 | 38 | 1013.5 |
| 20260507175333 | 63 | 270 | 6.0 | 11.0 | 0.00 | 0.52 | 0.00 | 47 | 1013.5 |
| 20260507174408 | 62 | 248 | 3.0 | 11.0 | 0.00 | 0.55 | 0.00 | 49 | 1013.5 |
| 20260507173514 | 61 | 248 | 3.0 | 6.0 | 0.00 | 0.57 | 0.00 | 47 | 1013.7 |
| 20260507172602 | 60 | 248 | 3.0 | 10.0 | 0.00 | 0.59 | 0.00 | 46 | 1013.8 |
| 20260507172513 | 60 | 248 | 3.0 | 10.0 | 0.00 | 0.59 | 0.00 | 46 | 1013.8 |
| 20260507171548 | 59 | 270 | 3.0 | 7.0 | 0.00 | 0.59 | 0.00 | 46 | 1014.1 |
| 20260507170728 | 58 | 248 | 6.0 | 11.0 | 0.00 | 0.60 | 0.00 | 46 | 1014.1 |
| 20260507165738 | 57 | 270 | 7.0 | 11.0 | 0.00 | 0.61 | 0.00 | 52 | 1014.4 |
| 20260507164903 | 56 | 248 | 8.0 | 14.0 | 0.00 | 0.62 | 0.00 | 52 | 1014.5 |
| 20260507164003 | 55 | 248 | 8.0 | 13.0 | 0.00 | 0.63 | 0.00 | 50 | 1014.5 |
| 20260507163138 | 55 | 270 | 7.0 | 12.0 | 0.00 | 0.63 | 0.00 | 52 | 1014.6 |
| 20260507162243 | 54 | 270 | 8.0 | 15.0 | 0.00 | 0.64 | 0.00 | 55 | 1014.5 |
| 20260507161308 | 54 | 270 | 8.0 | 14.0 | 0.00 | 0.66 | 0.00 | 52 | 1014.8 |
| 20260507160405 | 54 | 270 | 7.0 | 12.0 | 0.00 | 0.67 | 0.00 | 57 | 1015.0 |
| 20260507155529 | 54 | 270 | 8.0 | 14.0 | 0.00 | 0.67 | 0.00 | 57 | 1015.0 |
| 20260507154625 | 55 | 270 | 6.0 | 11.0 | 0.00 | 0.67 | 0.00 | 61 | 1015.1 |
| 20260507153712 | 55 | 158 | 1.0 | 4.0 | 0.00 | 0.68 | 0.00 | 55 | 1015.2 |
| 20260507152844 | 55 | 158 | 2.0 | 3.0 | 0.00 | 0.69 | 0.00 | 60 | 1015.1 |
| 20260507151921 | 54 | 135 | 2.0 | 5.0 | 0.00 | 0.70 | 0.00 | 58 | 1015.1 |
| 20260507151049 | 53 | 270 | 2.0 | 6.0 | 0.00 | 0.70 | 0.00 | 54 | 1015.3 |
| 20260507150119 | 52 | 0 | 1.0 | 4.0 | 0.00 | 0.70 | 0.00 | 63 | 1015.3 |